GW3924 Weather Reports


time (UTC)temp
C
wind
direction
speed
KPH
gust
KPH
rain 1hr
cm
rain 24hr
cm
rain mn
cm
humidity
%
barometer
mb
20260504151009 21 165 4.8 9.7 0.00 0.00 0.00 60 1011.8
20260504150507 21 177 4.8 11.3 0.00 0.00 0.00 63 1011.9
20260504140933 20 131 0.0 1.6 0.00 0.00 0.00 69 1012.2
20260504140429 19 125 3.2 6.4 0.00 0.00 0.00 67 1012.4
20260504130354 16 123 1.6 4.8 0.00 0.00 0.00 77 1013.1
20260504120317 15 112 0.0 1.6 0.00 0.00 0.00 81 1013.4
20260504110241 14 161 0.0 1.6 0.00 0.00 0.00 80 1013.1
20260504100200 15 95 0.0 1.6 0.00 0.00 0.00 77 1013.1
20260504090122 15 91 0.0 0.0 0.00 0.00 0.00 75 1013.2
20260504081552 15 106 0.0 0.0 0.00 0.00 0.00 79 1013.2
20260504081048 14 113 1.6 1.6 0.00 0.00 0.00 82 1013.4
20260504080545 14 110 0.0 0.0 0.00 0.00 0.00 81 1013.2
20260504050357 16 135 0.0 9.7 0.00 0.00 0.00 65 1012.5
20260504045855 16 28 0.0 3.2 0.00 0.00 0.00 66 1012.5
20260504045349 16 203 3.2 9.7 0.00 0.00 0.00 65 1012.8
20260504044847 16 121 1.6 3.2 0.00 0.00 0.00 66 1012.8
20260504044344 16 141 1.6 4.8 0.00 0.00 0.00 64 1012.9
20260504043841 16 188 3.2 9.7 0.00 0.00 0.00 64 1013.2
20260504043338 17 104 1.6 6.4 0.00 0.00 0.00 63 1013.1
20260504042835 17 220 1.6 3.2 0.00 0.00 0.00 63 1013.1
20260504042331 17 168 3.2 6.4 0.00 0.00 0.00 63 1013.4
20260504041828 17 135 4.8 9.7 0.00 0.00 0.00 62 1013.6
20260504041324 17 282 1.6 3.2 0.00 0.00 0.00 63 1013.5
20260504040820 17 163 4.8 6.4 0.00 0.00 0.00 62 1013.6
20260504040318 17 133 3.2 4.8 0.00 0.00 0.00 62 1013.5
20260504035814 17 96 1.6 9.7 0.00 0.00 0.00 62 1013.6
20260504035311 17 145 4.8 6.4 0.00 0.00 0.00 61 1013.5
20260504034808 17 152 3.2 4.8 0.00 0.00 0.00 62 1013.6
20260504034306 17 171 3.2 4.8 0.00 0.00 0.00 61 1013.7
20260504033803 17 204 3.2 4.8 0.00 0.00 0.00 61 1013.7
20260504033301 17 131 1.6 6.4 0.00 0.00 0.00 61 1013.8
20260504032757 17 153 3.2 4.8 0.00 0.00 0.00 59 1013.5
20260504032254 17 185 1.6 1.6 0.00 0.00 0.00 60 1013.7
20260504031751 17 133 1.6 4.8 0.00 0.00 0.00 59 1013.8
20260504031249 17 217 1.6 4.8 0.00 0.00 0.00 59 1013.8
20260504030744 17 120 1.6 6.4 0.00 0.00 0.00 58 1013.8
20260504030242 17 160 4.8 12.9 0.00 0.00 0.00 58 1013.8
20260504025738 17 212 1.6 4.8 0.00 0.00 0.00 58 1014.0
20260504025235 17 209 3.2 6.4 0.00 0.00 0.00 57 1014.0
20260504024732 17 168 1.6 6.4 0.00 0.00 0.00 57 1013.9
20260504024228 17 154 3.2 4.8 0.00 0.00 0.00 56 1014.0
20260504023725 17 93 0.0 4.8 0.00 0.00 0.00 56 1014.2
20260504023221 18 193 6.4 11.3 0.00 0.00 0.00 56 1014.2
20260504022712 18 290 1.6 6.4 0.00 0.00 0.00 56 1013.9
20260504022209 18 137 1.6 4.8 0.00 0.00 0.00 55 1013.8
20260504021706 18 204 3.2 11.3 0.00 0.00 0.00 55 1013.8
20260504021203 18 31 4.8 9.7 0.00 0.00 0.00 54 1013.7
20260504020700 18 323 1.6 6.4 0.00 0.00 0.00 55 1013.7
20260504020155 18 165 6.4 9.7 0.00 0.00 0.00 54 1013.7
20260504015653 18 156 3.2 6.4 0.00 0.00 0.00 54 1013.7
20260504015149 18 130 1.6 6.4 0.00 0.00 0.00 55 1013.7
20260504014644 18 21 4.8 9.7 0.00 0.00 0.00 54 1013.8
20260504014142 18 144 0.0 9.7 0.00 0.00 0.00 55 1013.9
20260504013640 18 207 4.8 4.8 0.00 0.00 0.00 54 1013.6
20260504013136 18 204 6.4 9.7 0.00 0.00 0.00 54 1013.5
20260504012633 18 38 3.2 9.7 0.00 0.00 0.00 54 1013.7
20260504012131 18 131 6.4 11.3 0.00 0.00 0.00 53 1013.7
20260504011628 18 202 8.0 11.3 0.00 0.00 0.00 54 1013.6
20260504011125 18 131 4.8 4.8 0.00 0.00 0.00 54 1013.9
20260504010620 18 75 1.6 3.2 0.00 0.00 0.00 55 1013.7
20260504010116 18 109 1.6 12.9 0.00 0.00 0.00 54 1013.6
20260504005613 18 203 0.0 6.4 0.00 0.00 0.00 54 1013.6
20260504005110 18 124 0.0 1.6 0.00 0.00 0.00 55 1013.8
20260504004608 19 156 1.6 3.2 0.00 0.00 0.00 53 1013.7
20260504004105 19 141 0.0 4.8 0.00 0.00 0.00 52 1013.7
20260504003600 19 50 3.2 4.8 0.00 0.00 0.00 51 1013.7
20260504003057 20 176 1.6 3.2 0.00 0.00 0.00 52 1013.9
20260504002554 20 157 4.8 4.8 0.00 0.00 0.00 51 1013.9
20260504002052 20 168 3.2 3.2 0.00 0.00 0.00 50 1014.0
20260504001549 20 71 1.6 3.2 0.00 0.00 0.00 51 1013.9
20260504001045 20 332 1.6 4.8 0.00 0.00 0.00 50 1014.0
20260504000543 20 124 1.6 3.2 0.00 0.00 0.00 50 1014.1
20260504000040 20 126 3.2 6.4 0.00 0.00 0.00 48 1014.0
20260503235538 20 186 3.2 4.8 0.00 0.00 0.00 48 1014.0
20260503235035 21 128 1.6 4.8 0.00 0.00 0.00 49 1014.2
20260503234532 21 132 3.2 6.4 0.00 0.00 0.00 48 1014.0
20260503234031 21 78 0.0 3.2 0.00 0.00 0.00 48 1014.1
20260503233526 21 200 3.2 3.2 0.00 0.00 0.00 50 1014.0
20260503233023 21 216 1.6 3.2 0.00 0.00 0.00 48 1014.2
20260503232520 21 90 1.6 3.2 0.00 0.00 0.00 48 1014.3
20260503232017 21 130 1.6 9.7 0.00 0.00 0.00 46 1014.2
20260503231515 21 295 1.6 6.4 0.00 0.00 0.00 45 1014.2
20260503231012 21 238 3.2 3.2 0.00 0.00 0.00 45 1014.3
20260503230508 21 198 3.2 9.7 0.00 0.00 0.00 45 1014.2
20260503230006 21 221 6.4 9.7 0.00 0.00 0.00 44 1014.2
20260503225503 21 126 1.6 6.4 0.00 0.00 0.00 45 1014.2
20260503224958 21 211 4.8 11.3 0.00 0.00 0.00 43 1014.5
20260503224455 21 177 6.4 12.9 0.00 0.00 0.00 43 1014.6
20260503223953 21 39 3.2 11.3 0.00 0.00 0.00 43 1014.3
20260503223451 21 183 3.2 6.4 0.00 0.00 0.00 44 1014.3
20260503222946 21 341 1.6 4.8 0.00 0.00 0.00 44 1014.3
20260503222445 21 109 0.0 3.2 0.00 0.00 0.00 45 1014.4
20260503221942 21 253 11.3 17.7 0.00 0.00 0.00 43 1014.5
20260503221440 21 198 4.8 11.3 0.00 0.00 0.00 41 1014.5
20260503220937 22 113 4.8 11.3 0.00 0.00 0.00 42 1014.5
20260503220433 22 186 4.8 11.3 0.00 0.00 0.00 41 1014.5
20260503215930 22 119 4.8 9.7 0.00 0.00 0.00 41 1014.4
20260503215427 22 127 3.2 6.4 0.00 0.00 0.00 43 1014.5
20260503214925 22 147 3.2 14.5 0.00 0.00 0.00 40 1014.5
20260503214422 22 175 1.6 6.4 0.00 0.00 0.00 40 1014.7
20260503213920 22 205 3.2 12.9 0.00 0.00 0.00 40 1014.7
20260503213418 22 165 11.3 16.1 0.00 0.00 0.00 40 1014.9
20260503212914 22 208 3.2 6.4 0.00 0.00 0.00 43 1014.8
20260503212412 22 204 8.0 11.3 0.00 0.00 0.00 39 1014.7
20260503211909 22 202 6.4 22.5 0.00 0.00 0.00 42 1014.8
20260503211405 22 228 0.0 3.2 0.00 0.00 0.00 42 1015.0
20260503210900 22 99 3.2 9.7 0.00 0.00 0.00 42 1015.1
20260503210358 22 316 3.2 9.7 0.00 0.00 0.00 39 1015.3
20260503205852 22 227 3.2 20.9 0.00 0.00 0.00 39 1015.5
20260503205350 21 275 6.4 20.9 0.00 0.00 0.00 39 1015.7
20260503204846 21 35 3.2 14.5 0.00 0.00 0.00 40 1015.6
20260503204343 21 233 3.2 14.5 0.00 0.00 0.00 40 1015.8
20260503203841 22 261 4.8 14.5 0.00 0.00 0.00 39 1016.1
20260503203338 22 177 6.4 9.7 0.00 0.00 0.00 38 1016.1
20260503202835 21 228 4.8 12.9 0.00 0.00 0.00 38 1016.2
20260503202333 21 241 11.3 16.1 0.00 0.00 0.00 39 1016.4
20260503201831 21 292 4.8 12.9 0.00 0.00 0.00 41 1016.6
20260503201327 21 222 4.8 12.9 0.00 0.00 0.00 39 1016.8
20260503200825 21 111 3.2 12.9 0.00 0.00 0.00 42 1017.1
20260503200321 22 269 1.6 6.4 0.00 0.00 0.00 44 1017.2
20260503195819 21 166 8.0 17.7 0.00 0.00 0.00 39 1017.2
20260503195315 22 243 4.8 6.4 0.00 0.00 0.00 41 1017.7
20260503194813 21 17 6.4 9.7 0.00 0.00 0.00 42 1017.5
20260503194308 21 290 4.8 4.8 0.00 0.00 0.00 42 1017.7
20260503193804 21 263 4.8 9.7 0.00 0.00 0.00 42 1017.9
20260503193300 21 23 6.4 12.9 0.00 0.00 0.00 42 1017.9
20260503192756 21 182 1.6 4.8 0.00 0.00 0.00 46 1018.2
20260503192252 20 143 6.4 9.7 0.00 0.00 0.00 41 1018.1
20260503191748 20 185 9.7 14.5 0.00 0.00 0.00 41 1018.3
20260503191246 20 139 4.8 9.7 0.00 0.00 0.00 43 1018.5
20260503190742 21 113 1.6 11.3 0.00 0.00 0.00 42 1018.7
20260503190239 21 229 3.2 6.4 0.00 0.00 0.00 43 1018.7
20260503185737 21 175 6.4 9.7 0.00 0.00 0.00 42 1018.8
20260503185232 21 273 1.6 9.7 0.00 0.00 0.00 44 1019.0
20260503184727 20 204 1.6 6.4 0.00 0.00 0.00 43 1019.2
20260503184223 20 151 6.4 9.7 0.00 0.00 0.00 42 1019.4
20260503183720 20 163 1.6 12.9 0.00 0.00 0.00 42 1019.5
20260503183217 20 265 6.4 9.7 0.00 0.00 0.00 46 1019.8
20260503182716 20 278 3.2 14.5 0.00 0.00 0.00 46 1019.8
20260503182214 20 251 3.2 9.7 0.00 0.00 0.00 45 1020.0
20260503181710 20 269 4.8 6.4 0.00 0.00 0.00 45 1020.1
20260503181207 19 301 4.8 11.3 0.00 0.00 0.00 44 1020.2
20260503180703 19 304 3.2 11.3 0.00 0.00 0.00 45 1020.4
20260503180202 20 341 3.2 6.4 0.00 0.00 0.00 45 1020.7
20260503175658 19 264 3.2 4.8 0.00 0.00 0.00 45 1020.5
20260503175156 19 263 3.2 9.7 0.00 0.00 0.00 47 1020.6
20260503174652 20 206 4.8 9.7 0.00 0.00 0.00 45 1020.9
20260503174149 18 127 6.4 9.7 0.00 0.00 0.00 46 1020.8
20260503173644 19 176 6.4 9.7 0.00 0.00 0.00 51 1021.0
20260503173141 18 15 3.2 9.7 0.00 0.00 0.00 49 1021.2
20260503172638 18 224 1.6 6.4 0.00 0.00 0.00 47 1021.2
20260503172135 18 281 6.4 12.9 0.00 0.00 0.00 47 1021.3
20260503171631 18 188 1.6 6.4 0.00 0.00 0.00 49 1021.3
20260503171129 18 291 1.6 4.8 0.00 0.00 0.00 50 1021.4
20260503170626 18 253 1.6 11.3 0.00 0.00 0.00 51 1021.6
20260503170122 17 208 9.7 14.5 0.00 0.00 0.00 50 1021.6